[[{"header":{"parameterUnit":"m.s-1","parameterCategory":2,"la1":30.2991,"la2":30.254,"lo1":-89.0895,"lo2":-89.0444,"dy":0.0017,"dx":0.0017,"nx":28,"ny":28,"refTime":"2025-08-17T03:00:00:Z","depth":"0","parameterNumber":2,"parameterNumberName":"U-component_of_CURRENTS"},"data":[0,0,0,0,0,0,0,0,0,0,0,0,0,0,0,0,0,0,0,0,0,0,0,0,0,0,0,0,0,0,0,0,0,0,0,0,0,0,0,0,0,0,0,0,0,0,0,0,0,0,0,0,0,0,0,0,0,0,0.2571,0.2571,0,0.2593,0.2593,0.2594,0.2584,0.2584,0.2583,0.2583,0.2566,0.2566,0.2566,0,0,0,0,0,0,0,0,0,0,0,0,0,0.2542,0.2542,0.2571,0.2571,0.2571,0.2593,0.2593,0.2594,0.2584,0.2584,0.2583,0.2583,0.2566,0.2566,0.2566,0,0,0,0,0,0,0,0,0,0,0,0,0,0.2557,0.2542,0.257,0.257,0.2571,0.2593,0.2593,0.2594,0.2584,0.2584,0.2583,0.2583,0.2566,0.2566,0.2566,0.2578,0,0,0.2566,0.2565,0,0,0,0,0,0,0,0,0.2556,0.2558,0.257,0.257,0.2571,0.2586,0.2577,0.2587,0.2585,0.2578,0.2583,0.2582,0.257,0.257,0.2574,0.2577,0.2577,0.2566,0.2565,0.2565,0.2565,0,0,0,0,0,0,0,0.2555,0.2557,0.2578,0.257,0.2571,0.2577,0.2578,0.2579,0.2576,0.2578,0.2578,0.2583,0.257,0.2574,0.2574,0.2576,0.2566,0.2565,0.2565,0.2565,0.2663,0.2666,0,0,0,0,0,0,0.2555,0.2556,0.2578,0.2579,0.2563,0.2578,0.2579,0.2581,0.2576,0.2576,0.2583,0.2582,0.2575,0.2574,0.2573,0.2644,0.2565,0.2565,0.2565,0.2661,0.2664,0.2667,0,0,0,0,0,0,0.2554,0.2556,0.2577,0.2569,0.2572,0.2579,0.2581,0.2582,0.259,0.2581,0.2579,0.2592,0.2574,0.2573,0.2605,0.2641,0.2565,0.2565,0.2658,0.2662,0.2665,0.2749,0,0,0,0,0,0,0.2553,0.2556,0.2557,0.2569,0.2573,0.2602,0.2582,0.2583,0.2594,0.2593,0.2588,0.2585,0.2574,0.2606,0.2605,0.2639,0.2565,0.2654,0.2659,0.2664,0.2743,0.2755,0.2766,0,0,0,0,0,0.2552,0.2559,0.2557,0.256,0.2575,0.2603,0.2606,0.2607,0.2596,0.261,0.262,0.2585,0.2637,0.2608,0.2607,0.2641,0.2652,0.2658,0.2664,0.2738,0.2753,0.2766,0,0,0,0,0,0,0.2542,0.2559,0.2557,0.2567,0.2589,0.2602,0.2614,0.2614,0.2631,0.263,0.2616,0.2616,0.266,0.2644,0.2613,0.2688,0.264,0.2646,0.2697,0.2711,0.2722,0.2729,0.2565,0,0,0,0,0,0.2542,0.2554,0.2573,0.2581,0.2594,0.2605,0.2615,0.262,0.2637,0.2643,0.2645,0.2656,0.2684,0.2691,0.2707,0.2741,0.2799,0.2766,0.2778,0.2788,0.2796,0.2956,0.2983,0.2686,0.2686,0.2686,0,0,0.2539,0.2551,0.2556,0.2581,0.2595,0.2633,0.2609,0.2634,0.2671,0.2638,0.2688,0.2694,0.2704,0.2754,0.2771,0.2743,0.2905,0.2795,0.2803,0.2806,0.2965,0.2994,0.302,0.269,0.269,0.2689,0,0,0.2555,0.2554,0.2578,0.2604,0.2635,0.265,0.2661,0.2687,0.2703,0.2749,0.2749,0.2786,0.2806,0.2838,0.2852,0.2937,0.2964,0.2934,0.2993,0.3149,0.3175,0.3198,0.332,0.3354,0.2937,0.2937,0.2937,0,0.255,0.2584,0.259,0.263,0.2657,0.2664,0.2707,0.2735,0.2771,0.2796,0.2775,0.2855,0.2854,0.2938,0.2967,0.2963,0.305,0.2934,0.3166,0.319,0.3213,0.3332,0.3368,0.2942,0.2941,0.2941,0.294,0,0.2595,0.2626,0.2645,0.27,0.2731,0.2767,0.2809,0.2842,0.2855,0.2884,0.2958,0.2977,0.3023,0.3034,0.3021,0.3172,0.3182,0.3167,0.3131,0.3249,0.3366,0.3402,0.2948,0.2947,0.2945,0.2944,0,0,0.2577,0.2659,0.2668,0.2703,0.277,0.2797,0.287,0.2936,0.2981,0.3024,0.3102,0.3152,0.3155,0.3174,0.3176,0.3292,0.352,0.3298,0.3304,0.3418,0.387,0.3806,0.3839,0.3563,0.357,0.3575,0.389,0,0.2611,0.2691,0.2729,0.2808,0.2851,0.289,0.2955,0.3015,0.3059,0.3138,0.3186,0.3254,0.3214,0.3241,0.3359,0.3485,0.3618,0.3435,0.3737,0.3746,0.3677,0.388,0.3802,0.4071,0.3926,0.3932,0.3936,0,0.2643,0.2697,0.2772,0.2859,0.2881,0.2924,0.3012,0.3078,0.3188,0.3225,0.3307,0.3347,0.3506,0.3454,0.3757,0.3652,0.3771,0.3861,0.3876,0.381,0.375,0.3929,0.4142,0.4021,0.3992,0.3987,0.3983,0,0.2619,0.2723,0.2777,0.2809,0.291,0.2941,0.2997,0.3092,0.3157,0.3291,0.3361,0.3521,0.3626,0.3818,0.3961,0.3909,0.4297,0.4251,0.4307,0.4302,0.4288,0.4271,0.4417,0.4494,0.4493,0.4493,0.4492,0,0.2634,0.2677,0.2762,0.2791,0.2845,0.2929,0.2992,0.3063,0.3196,0.3289,0.3404,0.3515,0.3734,0.3939,0.4064,0.4304,0.4397,0.4373,0.4408,0.4312,0.4294,0.4221,0.4133,0.4504,0.4502,0.4499,0.4497,0,0.259,0.2652,0.2708,0.2805,0.2826,0.2861,0.2966,0.3038,0.3166,0.3304,0.3364,0.3597,0.3873,0.4062,0.4385,0.4439,0.4553,0.47,0.4543,0.4552,0.4457,0.4375,0.4425,0.4271,0.4867,0.4868,0.4869,0,0.2577,0.2601,0.268,0.2711,0.2745,0.2806,0.2861,0.2988,0.3087,0.3336,0.3433,0.3715,0.3903,0.4341,0.4514,0.4777,0.4599,0.481,0.4681,0.4491,0.4431,0.422,0.4068,0.4718,0.4717,0.4717,0.4716,0,0.2551,0.2565,0.2618,0.2691,0.2737,0.2774,0.2876,0.293,0.3114,0.3247,0.3472,0.3645,0.4054,0.4303,0.4607,0.4735,0.458,0.4803,0.4696,0.441,0.4112,0.3964,0.4431,0.4711,0.4712,0.4712,0.4712,0.4713,0.2526,0.256,0.2647,0.2688,0.2737,0.2772,0.2762,0.2897,0.3017,0.3204,0.3422,0.3654,0.4074,0.4511,0.458,0.4657,0.4556,0.4611,0.4564,0.4393,0.4124,0.4543,0.4778,0.4779,0.478,0.478,0.4781,0,0.2573,0.262,0.2658,0.2713,0.2717,0.275,0.2808,0.2792,0.2868,0.3117,0.3293,0.3721,0.403,0.4311,0.4562,0.4458,0.4251,0.435,0.4066,0.3949,0.4461,0.4328,0.4367,0.4367,0.4367,0.4367,0.4367,0.4367,0.2621,0.2683,0.2688,0.2689,0.2692,0.266,0.264,0.2627,0.2756,0.2952,0.3176,0.3434,0.3903,0.4338,0.4374,0.4278,0.3898,0.3809,0.3678,0.4075,0.4093,0.4111,0.3967,0.3929,0.3928,0.3047,0.304,0.3035]},{"header":{"parameterUnit":"m.s-1","parameterCategory":2,"la1":30.2991,"la2":30.254,"lo1":-89.0895,"lo2":-89.0444,"dy":0.0017,"dx":0.0017,"nx":28,"ny":28,"refTime":"2025-08-17T03:00:00:Z","depth":"0","parameterNumber":3,"parameterNumberName":"V-component_of_CURRENTS"},"data":[0,0,0,0,0,0,0,0,0,0,0,0,0,0,0,0,0,0,0,0,0,0,0,0,0,0,0,0,0,0,0,0,0,0,0,0,0,0,0,0,0,0,0,0,0,0,0,0,0,0,0,0,0,0,0,0,0,0,-0.0254,-0.0254,0,-0.0232,-0.0232,-0.0232,-0.0203,-0.0203,-0.0202,-0.0202,-0.0232,-0.0233,-0.0234,0,0,0,0,0,0,0,0,0,0,0,0,0,-0.0232,-0.0233,-0.0254,-0.0254,-0.0253,-0.0232,-0.0232,-0.0232,-0.0203,-0.0203,-0.0202,-0.0202,-0.0231,-0.0233,-0.0234,0,0,0,0,0,0,0,0,0,0,0,0,0,-0.0229,-0.0233,-0.0254,-0.0237,-0.0235,-0.0232,-0.0232,-0.0231,-0.0203,-0.0203,-0.0202,-0.0201,-0.0231,-0.0233,-0.0235,-0.026,0,0,-0.024,-0.0241,0,0,0,0,0,0,0,0,-0.023,-0.023,-0.0239,-0.0238,-0.0236,-0.022,-0.0235,-0.0243,-0.0203,-0.0215,-0.0202,-0.0201,-0.0233,-0.0235,-0.0231,-0.0261,-0.0262,-0.024,-0.0241,-0.0242,-0.0243,0,0,0,0,0,0,0,-0.023,-0.0231,-0.0245,-0.0239,-0.0237,-0.0217,-0.0216,-0.0236,-0.0229,-0.0214,-0.0212,-0.021,-0.0232,-0.023,-0.0232,-0.0263,-0.024,-0.0242,-0.0243,-0.0244,-0.0301,-0.0301,0,0,0,0,0,0,-0.0236,-0.0231,-0.0246,-0.0244,-0.0231,-0.0218,-0.0217,-0.0226,-0.0228,-0.0227,-0.0211,-0.0209,-0.0227,-0.023,-0.0233,-0.0238,-0.0242,-0.0244,-0.0245,-0.03,-0.0301,-0.0301,0,0,0,0,0,0,-0.0236,-0.0238,-0.0247,-0.0237,-0.0236,-0.022,-0.0229,-0.0225,-0.022,-0.0225,-0.0225,-0.0209,-0.0226,-0.023,-0.0243,-0.024,-0.0245,-0.0246,-0.03,-0.03,-0.0301,-0.0264,0,0,0,0,0,0,-0.0235,-0.0238,-0.0245,-0.0238,-0.0237,-0.0242,-0.0229,-0.0226,-0.022,-0.0218,-0.0224,-0.0225,-0.0226,-0.024,-0.0245,-0.0242,-0.0248,-0.0299,-0.03,-0.0301,-0.0265,-0.0263,-0.0262,0,0,0,0,0,-0.0235,-0.024,-0.0246,-0.0248,-0.0249,-0.0243,-0.024,-0.0225,-0.0221,-0.0219,-0.0219,-0.0225,-0.0248,-0.0242,-0.0247,-0.0245,-0.0299,-0.03,-0.0301,-0.0265,-0.0264,-0.0262,0,0,0,0,0,0,-0.0222,-0.0238,-0.0244,-0.0251,-0.025,-0.0238,-0.0233,-0.0229,-0.0228,-0.0226,-0.023,-0.0232,-0.0241,-0.0256,-0.0249,-0.0266,-0.0275,-0.0277,-0.0247,-0.0245,-0.0244,-0.0212,-0.0249,0,0,0,0,0,-0.0229,-0.0243,-0.0248,-0.0252,-0.0254,-0.0248,-0.0244,-0.0237,-0.0234,-0.0232,-0.0236,-0.0245,-0.0251,-0.0257,-0.0268,-0.0282,-0.0233,-0.0286,-0.0285,-0.0283,-0.0263,-0.0169,-0.0156,-0.0304,-0.0304,-0.0304,0,0,-0.0222,-0.0234,-0.0239,-0.0252,-0.0249,-0.0239,-0.0243,-0.0238,-0.0225,-0.0239,-0.0228,-0.0243,-0.0255,-0.026,-0.0266,-0.027,-0.0219,-0.0285,-0.0283,-0.0262,-0.0169,-0.0153,-0.014,-0.0305,-0.0305,-0.0305,0,0,-0.0205,-0.0231,-0.0231,-0.0234,-0.0238,-0.0236,-0.0236,-0.0233,-0.0228,-0.0229,-0.023,-0.0237,-0.0258,-0.0252,-0.0255,-0.0259,-0.0215,-0.0276,-0.024,-0.015,-0.0136,-0.0122,-0.0043,-0.0022,-0.0274,-0.0274,-0.0274,0,-0.0192,-0.0198,-0.0227,-0.0222,-0.0214,-0.0233,-0.0214,-0.0216,-0.0215,-0.0205,-0.0222,-0.0219,-0.0246,-0.0221,-0.0228,-0.0252,-0.019,-0.0241,-0.0142,-0.0128,-0.0115,-0.0037,-0.0015,-0.0272,-0.0272,-0.0273,-0.0273,0,-0.0168,-0.0173,-0.0172,-0.0177,-0.0175,-0.0166,-0.0172,-0.0174,-0.0181,-0.0173,-0.016,-0.0182,-0.0167,-0.0195,-0.0217,-0.0152,-0.0134,-0.0147,-0.0134,-0.0097,-0.0018,0.0004,-0.027,-0.027,-0.0271,-0.0271,0,0,-0.0126,-0.015,-0.0146,-0.0139,-0.0149,-0.0139,-0.0132,-0.0117,-0.008,-0.0107,-0.0037,-0.0096,-0.0093,-0.0097,-0.012,-0.007,0.0049,-0.007,-0.0066,0.0031,0.0265,0.0201,0.0219,0.0072,0.0076,0.0079,0.0284,0,-0.0089,-0.0075,-0.0094,-0.0064,-0.0053,-0.0072,-0.005,-0.0043,-0.0033,0.0025,-0.0,0.0054,-0.0057,-0.002,0.0,0.0077,0.011,-0.0005,0.0195,0.0201,0.0158,0.0243,0.0193,0.0365,0.0306,0.031,0.0312,0,-0.0047,-0.0045,-0.0014,-0.0003,0.0004,0.0023,0.0069,0.0089,0.0138,0.0157,0.0183,0.0198,0.0265,0.0174,0.0294,0.024,0.024,0.0265,0.0274,0.0222,0.0179,0.0316,0.0408,0.0109,0.0347,0.0344,0.0342,0,0.0009,0.0016,0.0043,0.0046,0.0057,0.0078,0.0096,0.0133,0.0213,0.028,0.0392,0.0406,0.0528,0.0516,0.0528,0.0451,0.0685,0.0592,0.0516,0.0512,0.0511,0.0499,0.0358,0.0651,0.0651,0.065,0.065,0,0.0058,0.0082,0.0072,0.009,0.0149,0.0138,0.0233,0.0246,0.037,0.0543,0.0489,0.0679,0.0634,0.0745,0.0656,0.0694,0.0792,0.0558,0.0575,0.0516,0.0502,0.0272,0.011,0.0658,0.0656,0.0655,0.0653,0,0.0123,0.0107,0.0145,0.0161,0.0176,0.0226,0.0343,0.0451,0.0531,0.0783,0.085,0.099,0.1136,0.1052,0.1113,0.0929,0.0763,0.0875,0.0796,0.0794,0.0365,0.0208,0.0174,0.003,0.0833,0.0833,0.0833,0,0.0165,0.0183,0.0212,0.0276,0.0291,0.0366,0.0461,0.0524,0.0704,0.101,0.1206,0.1389,0.1591,0.1602,0.1307,0.1146,0.085,0.0914,0.0702,0.036,0.02,0.0095,-0.0033,0.0731,0.073,0.0729,0.0728,0,0.0266,0.0266,0.0311,0.0433,0.0526,0.0638,0.0801,0.0968,0.1148,0.1387,0.1789,0.1977,0.1939,0.1801,0.147,0.1274,0.0659,0.0887,0.0587,0.0151,-0.0014,-0.0151,0.0559,0.0721,0.0722,0.0722,0.0723,0.0723,0.0378,0.044,0.0527,0.0647,0.0764,0.0986,0.1131,0.1375,0.1692,0.212,0.2238,0.2556,0.2192,0.1758,0.1398,0.0603,0.0633,0.0339,0.0202,0.0147,-0.009,0.0576,0.0698,0.0699,0.0699,0.07,0.07,0,0.0575,0.0654,0.0766,0.0939,0.1118,0.1129,0.1437,0.1634,0.205,0.242,0.2748,0.2783,0.2237,0.1599,0.0572,0.0021,-0.0213,-0.0287,-0.0474,-0.0557,0.0103,-0.0013,-0.0106,-0.0105,-0.0105,-0.0105,-0.0105,-0.0104,0.0713,0.0877,0.0922,0.1252,0.1377,0.1644,0.1829,0.2119,0.2414,0.2882,0.3105,0.3264,0.2786,0.0948,-0.037,-0.0661,-0.1076,-0.1115,-0.1304,-0.093,-0.0884,-0.084,-0.0992,-0.1288,-0.1289,-0.1935,-0.1941,-0.1947]}],[{"header":{"parameterUnit":"m.s-1","parameterCategory":2,"la1":30.2991,"la2":30.254,"lo1":-89.0895,"lo2":-89.0444,"dy":0.0017,"dx":0.0017,"nx":28,"ny":28,"refTime":"2025-08-17T03:00:00:Z","depth":"2","parameterNumber":2,"parameterNumberName":"U-component_of_CURRENTS"},"data":[0,0,0,0,0,0,0,0,0,0,0,0,0,0,0,0,0,0,0,0,0,0,0,0,0,0,0,0,0,0,0,0,0,0,0,0,0,0,0,0,0,0,0,0,0,0,0,0,0,0,0,0,0,0,0,0,0,0,0.2155,0.2156,0,0.2293,0.2295,0.2298,0.2342,0.234,0.2338,0.2337,0.2344,0.2346,0.2347,0,0,0,0,0,0,0,0,0,0,0,0,0,0.2071,0.2072,0.2155,0.2156,0.2157,0.2293,0.2296,0.2298,0.2342,0.234,0.2338,0.2336,0.2343,0.2345,0.2347,0,0,0,0,0,0,0,0,0,0,0,0,0,0.2158,0.2073,0.2155,0.2187,0.219,0.2292,0.2296,0.2299,0.2342,0.234,0.2337,0.2335,0.2343,0.2345,0.2348,0.2413,0,0,0.2356,0.2357,0,0,0,0,0,0,0,0,0.2153,0.2162,0.2181,0.2185,0.2189,0.2288,0.2268,0.2327,0.2343,0.2296,0.2337,0.2334,0.2308,0.2313,0.2362,0.2413,0.2413,0.2356,0.2357,0.2358,0.2359,0,0,0,0,0,0,0,0.2146,0.2157,0.2221,0.2182,0.2186,0.2241,0.2251,0.2282,0.232,0.23,0.2301,0.23,0.231,0.236,0.2362,0.2413,0.2356,0.2358,0.236,0.2361,0.2553,0.2556,0,0,0,0,0,0,0.2103,0.2151,0.2216,0.2224,0.2152,0.2244,0.2255,0.2268,0.2323,0.2327,0.2301,0.2301,0.2356,0.2359,0.2362,0.2422,0.2358,0.2361,0.2362,0.2549,0.2553,0.2557,0,0,0,0,0,0,0.2101,0.2109,0.221,0.2181,0.2196,0.2245,0.2261,0.2271,0.2329,0.2323,0.2326,0.2346,0.2355,0.2358,0.2385,0.2422,0.2362,0.2364,0.2545,0.255,0.2555,0.2553,0,0,0,0,0,0,0.2099,0.2108,0.2126,0.2178,0.2196,0.2262,0.2262,0.2275,0.2325,0.2327,0.2363,0.2361,0.2353,0.2382,0.2388,0.2424,0.2366,0.254,0.2547,0.2554,0.2549,0.2558,0.2565,0,0,0,0,0,0.2096,0.2142,0.2127,0.2135,0.2212,0.2262,0.2278,0.2312,0.233,0.2358,0.2377,0.236,0.243,0.2386,0.2393,0.243,0.2537,0.2545,0.2553,0.2545,0.2556,0.2565,0,0,0,0,0,0,0.2109,0.2151,0.2136,0.2188,0.2205,0.2264,0.2306,0.233,0.2382,0.2381,0.2388,0.2388,0.2417,0.2448,0.24,0.2516,0.249,0.25,0.2482,0.2492,0.25,0.25,0.2368,0,0,0,0,0,0.2115,0.2152,0.2179,0.2205,0.2227,0.2271,0.2305,0.2318,0.2356,0.2381,0.2401,0.2439,0.2465,0.2491,0.2507,0.2579,0.2594,0.2621,0.2629,0.2636,0.2648,0.2699,0.2711,0.2584,0.2583,0.2583,0,0,0.2112,0.2142,0.2156,0.2208,0.2237,0.2283,0.229,0.2336,0.2372,0.2369,0.2439,0.2445,0.2484,0.2536,0.256,0.2564,0.2683,0.2646,0.265,0.2659,0.2708,0.272,0.273,0.2589,0.2588,0.2587,0,0,0.2126,0.2164,0.2198,0.2238,0.2273,0.2302,0.2315,0.2376,0.2407,0.246,0.2463,0.2493,0.2564,0.2588,0.2614,0.2696,0.27,0.2727,0.2792,0.284,0.285,0.2858,0.2886,0.2897,0.2761,0.2761,0.2761,0,0.2119,0.2166,0.221,0.2264,0.2296,0.2313,0.2354,0.2404,0.2458,0.2482,0.2474,0.2575,0.2587,0.2661,0.2694,0.2707,0.2739,0.2732,0.2845,0.2854,0.2862,0.2889,0.2901,0.2762,0.2762,0.2761,0.2761,0,0.2165,0.2205,0.2237,0.2299,0.2346,0.2384,0.2434,0.2475,0.2506,0.254,0.2598,0.2626,0.2694,0.2713,0.2729,0.2821,0.2823,0.2814,0.28,0.2874,0.2899,0.2911,0.2763,0.2763,0.2762,0.2762,0,0,0.2133,0.2243,0.2252,0.2285,0.2371,0.241,0.2473,0.2529,0.2584,0.2622,0.2701,0.2744,0.2766,0.2802,0.2829,0.2887,0.2963,0.2902,0.2904,0.2896,0.3074,0.3042,0.3052,0.2979,0.2982,0.2984,0.3063,0,0.214,0.223,0.229,0.236,0.241,0.2465,0.253,0.2586,0.2637,0.2721,0.2751,0.2825,0.2805,0.2854,0.2904,0.2964,0.3,0.2942,0.3035,0.3038,0.2972,0.3067,0.2833,0.2882,0.3075,0.3077,0.3078,0,0.2162,0.2223,0.23,0.2395,0.2426,0.2478,0.2581,0.2643,0.2748,0.28,0.287,0.2905,0.3009,0.2973,0.3085,0.3061,0.3071,0.3089,0.3093,0.3073,0.303,0.2848,0.2898,0.3099,0.3097,0.3095,0.3094,0,0.2125,0.2225,0.2282,0.2326,0.2447,0.2491,0.255,0.2657,0.2727,0.2865,0.294,0.303,0.3124,0.3149,0.3201,0.3164,0.3312,0.3255,0.3211,0.3208,0.3033,0.3011,0.3295,0.3295,0.3295,0.3294,0.3294,0,0.2132,0.219,0.2271,0.2322,0.239,0.2486,0.2576,0.2657,0.2793,0.2891,0.2989,0.3082,0.3182,0.3269,0.3258,0.3306,0.3356,0.3243,0.3241,0.3029,0.3006,0.3212,0.3201,0.3297,0.3297,0.3296,0.3296,0,0.2133,0.2182,0.2255,0.2357,0.2381,0.2447,0.2578,0.267,0.2798,0.2939,0.2994,0.3176,0.3299,0.3359,0.3444,0.3403,0.3421,0.3399,0.3143,0.311,0.3258,0.3247,0.3361,0.3361,0.3361,0.3361,0.3361,0,0.2172,0.2197,0.226,0.2313,0.2372,0.2461,0.2539,0.2658,0.276,0.2968,0.3049,0.3222,0.331,0.3447,0.3427,0.3422,0.3441,0.319,0.3059,0.3286,0.3272,0.3261,0.3251,0.2818,0.2814,0.281,0.2807,0,0.2239,0.2234,0.2294,0.2345,0.2421,0.2478,0.2587,0.264,0.2801,0.2909,0.3048,0.3122,0.3285,0.3217,0.3266,0.3206,0.318,0.3114,0.3445,0.2847,0.2783,0.2767,0.2772,0.2774,0.2778,0.278,0.2782,0.2783,0.2284,0.231,0.2334,0.2394,0.2459,0.2477,0.2478,0.2584,0.2653,0.2745,0.2901,0.2931,0.3012,0.2961,0.2884,0.2842,0.3025,0.2875,0.2882,0.2894,0.2827,0.2767,0.2742,0.2744,0.2747,0.2749,0.2751,0,0.2296,0.2326,0.2392,0.2405,0.2405,0.2476,0.2504,0.2442,0.2441,0.2576,0.262,0.2442,0.2449,0.252,0.2415,0.2429,0.2351,0.2324,0.22,0.2238,0.227,0.2165,0.1907,0.1904,0.1901,0.1898,0,0,0.2308,0.233,0.2337,0.231,0.2353,0.2294,0.2273,0.2174,0.2168,0.2106,0.2125,0.2307,0.2458,0.2135,0.2118,0.2,0.2084,0.1921,0.2611,0.2504,0.2531,0.2619,0.2506,0,0,0,0,0]},{"header":{"parameterUnit":"m.s-1","parameterCategory":2,"la1":30.2991,"la2":30.254,"lo1":-89.0895,"lo2":-89.0444,"dy":0.0017,"dx":0.0017,"nx":28,"ny":28,"refTime":"2025-08-17T03:00:00:Z","depth":"2","parameterNumber":3,"parameterNumberName":"V-component_of_CURRENTS"},"data":[0,0,0,0,0,0,0,0,0,0,0,0,0,0,0,0,0,0,0,0,0,0,0,0,0,0,0,0,0,0,0,0,0,0,0,0,0,0,0,0,0,0,0,0,0,0,0,0,0,0,0,0,0,0,0,0,0,0,-0.0106,-0.0106,0,-0.0186,-0.0188,-0.019,-0.0271,-0.0272,-0.0272,-0.0272,-0.0361,-0.0363,-0.0365,0,0,0,0,0,0,0,0,0,0,0,0,0,-0.0099,-0.0099,-0.0106,-0.0106,-0.0106,-0.0186,-0.0188,-0.019,-0.0271,-0.0272,-0.0272,-0.0272,-0.036,-0.0363,-0.0366,0,0,0,0,0,0,0,0,0,0,0,0,0,-0.0143,-0.0099,-0.0106,-0.0148,-0.0152,-0.0186,-0.0188,-0.0191,-0.0271,-0.0272,-0.0272,-0.0272,-0.0359,-0.0363,-0.0366,-0.0383,0,0,-0.0376,-0.0378,0,0,0,0,0,0,0,0,-0.014,-0.0144,-0.0142,-0.0145,-0.0149,-0.021,-0.0218,-0.0252,-0.0271,-0.0237,-0.0272,-0.0272,-0.0304,-0.0312,-0.0342,-0.0388,-0.0391,-0.0377,-0.0379,-0.038,-0.0381,0,0,0,0,0,0,0,-0.0137,-0.0142,-0.0149,-0.0142,-0.0146,-0.0188,-0.0195,-0.0226,-0.0277,-0.024,-0.0244,-0.0236,-0.0308,-0.0339,-0.0344,-0.0393,-0.0377,-0.038,-0.0382,-0.0383,-0.0459,-0.0459,0,0,0,0,0,0,-0.0101,-0.0138,-0.0146,-0.015,-0.0133,-0.0187,-0.0196,-0.0199,-0.0277,-0.0286,-0.0235,-0.0239,-0.0333,-0.034,-0.0348,-0.0339,-0.038,-0.0383,-0.0385,-0.0459,-0.0459,-0.0459,0,0,0,0,0,0,-0.0101,-0.0102,-0.0143,-0.0137,-0.0144,-0.0185,-0.019,-0.02,-0.023,-0.0271,-0.0282,-0.0252,-0.0333,-0.0343,-0.036,-0.0344,-0.0385,-0.0388,-0.0459,-0.0459,-0.0459,-0.0343,0,0,0,0,0,0,-0.0101,-0.0102,-0.0105,-0.0135,-0.0142,-0.0141,-0.0189,-0.0201,-0.0219,-0.0225,-0.0288,-0.0297,-0.0334,-0.0355,-0.0364,-0.0349,-0.0391,-0.0459,-0.0459,-0.0459,-0.0347,-0.0339,-0.0332,0,0,0,0,0,-0.0101,-0.0097,-0.0105,-0.0106,-0.0141,-0.0139,-0.0148,-0.0186,-0.0219,-0.0219,-0.0262,-0.0296,-0.0362,-0.0357,-0.0367,-0.0354,-0.0459,-0.0459,-0.0459,-0.035,-0.034,-0.0332,0,0,0,0,0,0,-0.009,-0.0105,-0.0114,-0.0114,-0.0113,-0.0148,-0.0155,-0.0181,-0.0222,-0.0231,-0.0287,-0.0298,-0.0305,-0.0352,-0.0346,-0.038,-0.042,-0.0422,-0.0333,-0.0325,-0.0317,-0.0301,-0.0393,0,0,0,0,0,-0.0085,-0.0087,-0.0096,-0.0088,-0.0091,-0.0125,-0.0135,-0.0151,-0.0179,-0.02,-0.0242,-0.029,-0.0316,-0.0336,-0.0365,-0.0384,-0.043,-0.0388,-0.0381,-0.0374,-0.0371,-0.0416,-0.0412,-0.0459,-0.0459,-0.0459,0,0,-0.0074,-0.008,-0.0081,-0.0085,-0.0099,-0.0087,-0.0134,-0.0132,-0.0122,-0.02,-0.0215,-0.0256,-0.0312,-0.0324,-0.0334,-0.0361,-0.0386,-0.0374,-0.0367,-0.0368,-0.0415,-0.041,-0.0406,-0.0459,-0.0459,-0.0459,0,0,-0.0034,-0.006,-0.0044,-0.0045,-0.0042,-0.0058,-0.005,-0.0078,-0.0095,-0.0105,-0.0155,-0.0182,-0.024,-0.0268,-0.0292,-0.0268,-0.0335,-0.0289,-0.0247,-0.029,-0.0286,-0.0283,-0.0332,-0.0334,-0.0297,-0.0297,-0.0297,0,-0.0019,-0.0002,-0.0034,-0.0015,-0.0005,-0.0038,-0.0008,-0.0027,-0.0054,-0.006,-0.0092,-0.0169,-0.021,-0.0223,-0.0219,-0.0246,-0.0293,-0.0268,-0.0278,-0.0276,-0.0275,-0.0326,-0.033,-0.0291,-0.0292,-0.0292,-0.0293,0,0.0032,0.0046,0.0058,0.0069,0.0073,0.0097,0.0084,0.0082,0.0052,0.0027,0.0008,-0.0056,-0.0106,-0.0124,-0.0166,-0.0179,-0.0221,-0.0249,-0.029,-0.0262,-0.0319,-0.0325,-0.0283,-0.0285,-0.0287,-0.0288,0,0,0.0072,0.0091,0.0096,0.0122,0.012,0.0138,0.0157,0.0167,0.0176,0.013,0.0128,0.0073,0.0019,-0.0014,-0.0071,-0.0117,-0.0145,-0.0183,-0.0187,-0.0214,-0.0253,-0.0257,-0.0265,-0.018,-0.018,-0.0181,-0.0293,0,0.0129,0.0189,0.0176,0.024,0.0271,0.0249,0.027,0.027,0.0245,0.023,0.0163,0.0134,0.0066,0.0038,-0.0013,-0.0109,-0.0158,-0.0113,-0.0292,-0.0297,-0.029,-0.027,-0.0241,-0.0337,-0.03,-0.0301,-0.0302,0,0.0182,0.0219,0.0285,0.0335,0.0343,0.0366,0.0391,0.0405,0.0374,0.0346,0.0296,0.0235,0.017,0.0103,-0.0043,-0.0017,-0.0126,-0.0207,-0.0214,-0.0263,-0.0312,-0.0363,-0.0351,-0.0313,-0.0312,-0.0311,-0.031,0,0.0235,0.0298,0.0356,0.0369,0.0408,0.0431,0.0446,0.0435,0.0455,0.0407,0.0404,0.031,0.0267,0.0125,-0.0035,-0.005,-0.0202,-0.0245,-0.0351,-0.0353,-0.0386,-0.039,-0.035,-0.035,-0.035,-0.035,-0.0349,0,0.0292,0.0338,0.0384,0.0414,0.0487,0.0483,0.0534,0.0531,0.0526,0.0558,0.0457,0.0462,0.0268,0.0165,-0.0005,-0.0185,-0.0181,-0.0338,-0.0377,-0.0345,-0.0344,-0.0372,-0.0373,-0.0354,-0.0353,-0.0352,-0.0351,0,0.0317,0.0351,0.0422,0.0483,0.0511,0.0547,0.0602,0.0633,0.0617,0.0653,0.0645,0.0572,0.0437,0.0243,0.002,-0.0129,-0.0313,-0.0381,-0.0329,-0.036,-0.0451,-0.0445,-0.0522,-0.0523,-0.0524,-0.0524,-0.0525,0,0.032,0.0364,0.0468,0.0511,0.0533,0.0594,0.0642,0.0668,0.0717,0.0734,0.0771,0.0666,0.0612,0.029,0.001,-0.0281,-0.0314,-0.044,-0.046,-0.0435,-0.0467,-0.0459,-0.0453,-0.0469,-0.0469,-0.0469,-0.0469,0,0.0319,0.0359,0.0416,0.0535,0.06,0.0692,0.0773,0.0838,0.0879,0.0927,0.0976,0.0932,0.0637,0.0369,-0.0018,-0.0213,-0.0392,-0.045,-0.0442,-0.0415,-0.0391,-0.0419,-0.0414,-0.0469,-0.0469,-0.0469,-0.0469,-0.0469,0.03,0.0344,0.0443,0.0541,0.0639,0.0778,0.0868,0.0974,0.1089,0.1178,0.1127,0.1075,0.0751,0.0271,-0.0055,-0.0391,-0.0398,-0.0519,-0.0517,-0.0516,-0.0475,-0.0451,-0.0535,-0.0535,-0.0535,-0.0536,-0.0536,0,0.0286,0.0355,0.0446,0.0588,0.0705,0.0767,0.0953,0.1053,0.1215,0.1286,0.1314,0.1016,0.0701,0.0346,-0.0152,-0.0464,-0.0491,-0.0551,-0.0515,-0.0513,-0.0512,-0.0469,-0.0529,-0.053,-0.053,-0.0531,0,0,0.0283,0.0364,0.0426,0.0613,0.0718,0.091,0.1028,0.1187,0.1304,0.1381,0.1368,0.1258,0.0819,0.0468,0.004,-0.0233,-0.0297,-0.0289,-0.0266,-0.0173,-0.0167,-0.0471,-0.0401,0,0,0,0,0]}],[{"header":{"parameterUnit":"m.s-1","parameterCategory":2,"la1":30.2991,"la2":30.254,"lo1":-89.0895,"lo2":-89.0444,"dy":0.0017,"dx":0.0017,"nx":28,"ny":28,"refTime":"2025-08-17T03:00:00:Z","depth":"4","parameterNumber":2,"parameterNumberName":"U-component_of_CURRENTS"},"data":[0,0,0,0,0,0,0,0,0,0,0,0,0,0,0,0,0,0,0,0,0,0,0,0,0,0,0,0,0,0,0,0,0,0,0,0,0,0,0,0,0,0,0,0,0,0,0,0,0,0,0,0,0,0,0,0,0,0,0.1181,0.1181,0,0.1193,0.1193,0.1193,0.1215,0.1216,0.1217,0.1218,0.1266,0.1267,0.1267,0,0,0,0,0,0,0,0,0,0,0,0,0,0.1114,0.1115,0.1181,0.1181,0.1182,0.1193,0.1193,0.1193,0.1215,0.1216,0.1217,0.1218,0.1266,0.1267,0.1267,0,0,0,0,0,0,0,0,0,0,0,0,0,0.1133,0.1116,0.1181,0.1197,0.1199,0.1193,0.1193,0.1193,0.1215,0.1216,0.1217,0.1218,0.1266,0.1267,0.1267,0.1249,0,0,0.127,0.127,0,0,0,0,0,0,0,0,0.1132,0.1135,0.1194,0.1196,0.1198,0.1207,0.1187,0.1215,0.1215,0.1205,0.1218,0.1219,0.1251,0.1253,0.1247,0.1252,0.1254,0.127,0.1271,0.1271,0.1271,0,0,0,0,0,0,0,0.1131,0.1134,0.1182,0.1195,0.1197,0.1183,0.1187,0.1192,0.1219,0.1206,0.1209,0.1215,0.1252,0.1246,0.1249,0.1255,0.127,0.1271,0.1271,0.1272,0.1372,0.1374,0,0,0,0,0,0,0.1139,0.1134,0.1182,0.1183,0.1171,0.1183,0.1188,0.12,0.1219,0.1223,0.1214,0.1217,0.1244,0.1248,0.1251,0.1345,0.1271,0.1272,0.1272,0.137,0.1373,0.1375,0,0,0,0,0,0,0.1137,0.1143,0.1181,0.1161,0.1165,0.1184,0.1197,0.12,0.123,0.1225,0.123,0.1246,0.1245,0.125,0.1296,0.1343,0.1272,0.1273,0.1368,0.1371,0.1374,0.1461,0,0,0,0,0,0,0.1135,0.1143,0.116,0.1162,0.1167,0.1201,0.1197,0.1199,0.1232,0.1235,0.1254,0.1257,0.1247,0.1295,0.1296,0.1343,0.1274,0.1365,0.1369,0.1373,0.1455,0.1467,0.1477,0,0,0,0,0,0.1133,0.1149,0.1161,0.1168,0.1189,0.1202,0.1204,0.1217,0.1233,0.1248,0.1272,0.1258,0.1322,0.1297,0.1299,0.1347,0.1363,0.1368,0.1373,0.1451,0.1465,0.1476,0,0,0,0,0,0,0.1129,0.1153,0.1167,0.119,0.1209,0.1208,0.1225,0.1238,0.1265,0.1281,0.128,0.1285,0.1345,0.1333,0.1306,0.1389,0.1342,0.1348,0.1401,0.1414,0.1425,0.1412,0.1274,0,0,0,0,0,0.1137,0.1157,0.1177,0.1198,0.1213,0.1227,0.1239,0.1252,0.1272,0.1287,0.1301,0.1325,0.1358,0.1378,0.1393,0.1433,0.1429,0.1468,0.1478,0.1487,0.148,0.1526,0.154,0.1391,0.1391,0.1391,0,0,0.1138,0.1158,0.1168,0.12,0.1215,0.1241,0.1238,0.1268,0.1299,0.1287,0.1341,0.1362,0.1378,0.1429,0.1455,0.1431,0.1532,0.1494,0.1501,0.1488,0.1533,0.1547,0.156,0.1394,0.1394,0.1393,0,0,0.1145,0.1176,0.1195,0.1216,0.1253,0.1267,0.1288,0.1311,0.1338,0.1387,0.1398,0.1447,0.1485,0.1506,0.1523,0.16,0.1587,0.1617,0.166,0.1706,0.1719,0.1729,0.1757,0.1769,0.1621,0.1622,0.1622,0,0.1148,0.118,0.1201,0.1228,0.1251,0.1288,0.1315,0.1347,0.1384,0.1414,0.1422,0.1508,0.1521,0.1592,0.1621,0.1624,0.1642,0.1611,0.172,0.173,0.174,0.1765,0.1777,0.1626,0.1626,0.1625,0.1625,0,0.1166,0.12,0.1216,0.1266,0.1292,0.1326,0.1371,0.1415,0.1461,0.149,0.1576,0.1602,0.1655,0.1676,0.1673,0.1755,0.1744,0.1729,0.1685,0.176,0.1782,0.1793,0.1633,0.1631,0.163,0.1629,0,0,0.1142,0.1215,0.1223,0.1252,0.1319,0.1338,0.1411,0.1476,0.1536,0.1591,0.1663,0.1729,0.1755,0.1775,0.1791,0.1823,0.1911,0.1809,0.1809,0.183,0.2012,0.1905,0.1907,0.1924,0.1927,0.1928,0.2005,0,0.1153,0.1205,0.1242,0.1299,0.1329,0.139,0.1453,0.152,0.1588,0.1667,0.1725,0.18,0.1794,0.1837,0.1878,0.1904,0.1944,0.1891,0.1939,0.194,0.1832,0.1917,0.1936,0.2013,0.2015,0.2017,0.2019,0,0.1152,0.119,0.1244,0.1322,0.1344,0.1393,0.15,0.156,0.1679,0.1734,0.1823,0.1872,0.1957,0.1933,0.2026,0.1999,0.2015,0.202,0.2024,0.1894,0.1854,0.1919,0.2039,0.2037,0.2036,0.2034,0.2033,0,0.1106,0.1188,0.1234,0.1259,0.1356,0.1405,0.1473,0.1585,0.1652,0.1784,0.1855,0.1954,0.2028,0.2065,0.2106,0.208,0.2186,0.2151,0.2068,0.206,0.2091,0.2079,0.2209,0.2209,0.2209,0.2208,0.2208,0,0.1084,0.1115,0.1224,0.1242,0.1316,0.1392,0.1488,0.1568,0.1698,0.1784,0.1894,0.1976,0.2068,0.2145,0.2146,0.2152,0.2233,0.2084,0.2078,0.2128,0.2119,0.21,0.2086,0.2211,0.2211,0.221,0.221,0,0.1004,0.1077,0.1127,0.1244,0.129,0.1339,0.1487,0.1551,0.1692,0.1811,0.1861,0.2025,0.2126,0.2196,0.2265,0.2205,0.2209,0.2187,0.2247,0.2242,0.2037,0.2028,0.2092,0.2089,0.2087,0.2085,0.2083,0,0.0957,0.0982,0.1111,0.1152,0.1207,0.1306,0.1375,0.1525,0.1591,0.1822,0.1862,0.2035,0.2127,0.2152,0.2219,0.2232,0.22,0.2179,0.2087,0.204,0.2029,0.2023,0.2017,0.2079,0.2078,0.2078,0.2077,0,0.0866,0.0931,0.0975,0.108,0.1154,0.1229,0.1341,0.1382,0.1562,0.1708,0.1835,0.1916,0.2037,0.2092,0.2132,0.2126,0.2174,0.2151,0.2155,0.2068,0.2025,0.2015,0.2012,0.2068,0.2069,0.207,0.2071,0,0.0794,0.0814,0.0912,0.0985,0.1081,0.1138,0.1205,0.1307,0.1403,0.1648,0.1687,0.1877,0.2025,0.2041,0.207,0.2071,0.2025,0.1929,0.1944,0.1954,0.1872,0.1794,0.1773,0,0,0,0,0,0.072,0.0749,0.0818,0.0897,0.0992,0.1056,0.1181,0.1251,0.1425,0.1471,0.1581,0.1689,0.179,0.1877,0.1849,0.1987,0.2013,0.1942,0.1903,0.2019,0.203,0.1945,0,0,0,0,0,0,0.0673,0.0732,0.0782,0.0825,0.0862,0.0957,0.1028,0.1138,0.1174,0.1361,0.1425,0.1573,0.1686,0.1791,0.1814,0.1837,0.1773,0.2052,0.2047,0.2014,0.2023,0.2031,0.1947,0,0,0,0,0]},{"header":{"parameterUnit":"m.s-1","parameterCategory":2,"la1":30.2991,"la2":30.254,"lo1":-89.0895,"lo2":-89.0444,"dy":0.0017,"dx":0.0017,"nx":28,"ny":28,"refTime":"2025-08-17T03:00:00:Z","depth":"4","parameterNumber":3,"parameterNumberName":"V-component_of_CURRENTS"},"data":[0,0,0,0,0,0,0,0,0,0,0,0,0,0,0,0,0,0,0,0,0,0,0,0,0,0,0,0,0,0,0,0,0,0,0,0,0,0,0,0,0,0,0,0,0,0,0,0,0,0,0,0,0,0,0,0,0,0,0.0046,0.0046,0,0.0046,0.0046,0.0046,0.0016,0.0015,0.0014,0.0013,-0.0067,-0.0069,-0.007,0,0,0,0,0,0,0,0,0,0,0,0,0,0.004,0.004,0.0046,0.0046,0.0046,0.0046,0.0046,0.0046,0.0016,0.0015,0.0014,0.0013,-0.0067,-0.0068,-0.007,0,0,0,0,0,0,0,0,0,0,0,0,0,0.0041,0.004,0.0046,0.0031,0.0029,0.0046,0.0046,0.0046,0.0016,0.0015,0.0013,0.0012,-0.0066,-0.0068,-0.007,-0.0059,0,0,-0.0077,-0.0078,0,0,0,0,0,0,0,0,0.0041,0.0042,0.0033,0.0032,0.003,0.0029,0.0014,0.0007,0.0016,0.0021,0.0013,0.0012,-0.0042,-0.0046,-0.0042,-0.0062,-0.0066,-0.0077,-0.0078,-0.0079,-0.008,0,0,0,0,0,0,0,0.0041,0.0042,0.0046,0.0033,0.0032,0.0031,0.0029,0.0013,-0.0005,0.0021,0.0018,0.0019,-0.0043,-0.0039,-0.0044,-0.0067,-0.0077,-0.0079,-0.008,-0.0081,-0.0128,-0.0128,0,0,0,0,0,0,0.0041,0.0042,0.0046,0.0046,0.0033,0.0032,0.003,0.0031,-0.0003,-0.0009,0.002,0.0017,-0.0035,-0.0042,-0.0047,-0.006,-0.0079,-0.0081,-0.0082,-0.0128,-0.0128,-0.0128,0,0,0,0,0,0,0.0041,0.0042,0.0046,0.0044,0.0044,0.0033,0.0034,0.0032,0.0032,-0.0003,-0.001,0.0022,-0.0037,-0.0044,-0.0066,-0.0062,-0.0082,-0.0084,-0.0128,-0.0128,-0.0128,-0.007,0,0,0,0,0,0,0.0041,0.0042,0.0045,0.0044,0.0044,0.0058,0.0035,0.0033,0.0034,0.0031,-0.0003,-0.0012,-0.0038,-0.0062,-0.0068,-0.0066,-0.0085,-0.0128,-0.0128,-0.0128,-0.0071,-0.0068,-0.0064,0,0,0,0,0,0.0041,0.0059,0.0046,0.0046,0.0048,0.0059,0.0059,0.0047,0.0035,0.0042,0.0013,-0.0011,-0.0067,-0.0064,-0.007,-0.0068,-0.0128,-0.0128,-0.0128,-0.0073,-0.0068,-0.0064,0,0,0,0,0,0,0.0062,0.0057,0.0043,0.0058,0.0055,0.0053,0.0062,0.0053,0.004,0.0032,-0.0005,-0.0015,-0.0036,-0.0058,-0.0054,-0.0084,-0.0103,-0.0105,-0.006,-0.0056,-0.0052,-0.0036,-0.0087,0,0,0,0,0,0.0067,0.0073,0.0067,0.0077,0.0079,0.007,0.0073,0.0065,0.0053,0.0046,0.0023,-0.0008,-0.0038,-0.0051,-0.0078,-0.0086,-0.0126,-0.0092,-0.0089,-0.0085,-0.0078,-0.0138,-0.0139,-0.0128,-0.0128,-0.0128,0,0,0.0076,0.0075,0.0078,0.0081,0.0079,0.0094,0.0069,0.0079,0.0087,0.0039,0.0042,0.0005,-0.0038,-0.0053,-0.0065,-0.0072,-0.011,-0.0085,-0.0082,-0.0076,-0.0138,-0.0139,-0.014,-0.0128,-0.0128,-0.0128,0,0,0.0106,0.0098,0.0115,0.0119,0.0119,0.0115,0.0119,0.0117,0.011,0.0108,0.0067,0.0034,0.0006,-0.0028,-0.0049,-0.004,-0.0091,-0.0052,-0.0016,-0.0075,-0.0076,-0.0078,-0.0131,-0.0138,-0.0047,-0.0047,-0.0047,0,0.0117,0.0138,0.0123,0.0143,0.0153,0.0127,0.0153,0.0147,0.0137,0.0131,0.0113,0.0054,0.0017,-0.0013,-0.0013,-0.0032,-0.0072,-0.0027,-0.0069,-0.0072,-0.0075,-0.013,-0.0138,-0.0044,-0.0045,-0.0045,-0.0045,0,0.016,0.0177,0.0192,0.0204,0.0211,0.0231,0.022,0.0221,0.0206,0.0191,0.0161,0.0108,0.0071,0.005,0.0023,-0.0013,-0.0038,-0.0059,-0.0077,-0.0072,-0.0131,-0.014,-0.004,-0.0041,-0.0042,-0.0043,0,0,0.0182,0.0216,0.022,0.0241,0.0248,0.0263,0.0272,0.0274,0.0279,0.0246,0.024,0.0182,0.0145,0.0117,0.007,0.0021,-0.0037,-0.0019,-0.0024,-0.0066,-0.0166,-0.0147,-0.0157,-0.0067,-0.0069,-0.007,-0.0199,0,0.0221,0.0278,0.0279,0.033,0.036,0.0344,0.036,0.0351,0.0329,0.0315,0.0245,0.0218,0.0172,0.015,0.0094,-0.0007,-0.0059,0.0001,-0.017,-0.0174,-0.0154,-0.0166,-0.0074,-0.0207,-0.0209,-0.0211,-0.0212,0,0.0261,0.0297,0.0358,0.0402,0.0413,0.0436,0.045,0.0459,0.0421,0.0401,0.0352,0.0294,0.0217,0.0177,0.0014,0.0053,-0.0045,-0.0125,-0.0133,-0.014,-0.0173,-0.0215,-0.0231,-0.0229,-0.0228,-0.0227,-0.0225,0,0.0292,0.035,0.0404,0.0421,0.0463,0.0484,0.0499,0.0485,0.0492,0.0449,0.0436,0.0339,0.0281,0.0151,-0.001,-0.0004,-0.0197,-0.0213,-0.029,-0.029,-0.0294,-0.0291,-0.0327,-0.0327,-0.0326,-0.0326,-0.0326,0,0.0334,0.0377,0.0427,0.0461,0.0522,0.053,0.0575,0.057,0.0557,0.0559,0.0481,0.0446,0.027,0.014,-0.0001,-0.0174,-0.0196,-0.0285,-0.0322,-0.0267,-0.026,-0.0302,-0.0297,-0.0331,-0.033,-0.0329,-0.0328,0,0.0359,0.0392,0.0461,0.0521,0.0542,0.0584,0.0631,0.0652,0.0638,0.0632,0.0618,0.0506,0.0346,0.0167,-0.006,-0.016,-0.0329,-0.0387,-0.0314,-0.0345,-0.0387,-0.0377,-0.0479,-0.048,-0.048,-0.048,-0.048,0,0.0379,0.0418,0.0504,0.0542,0.0573,0.0635,0.0671,0.0689,0.0702,0.0664,0.0652,0.0515,0.0421,0.0123,-0.0066,-0.0326,-0.0359,-0.0445,-0.041,-0.0376,-0.0402,-0.0393,-0.0383,-0.0481,-0.0481,-0.0481,-0.0481,0,0.0408,0.0437,0.049,0.057,0.0625,0.0692,0.0739,0.0758,0.0763,0.0756,0.0677,0.0534,0.0355,0.0131,-0.0071,-0.0259,-0.0385,-0.0449,-0.0449,-0.0417,-0.0379,-0.0403,-0.0394,-0.0482,-0.0482,-0.0482,-0.0482,0,0.0415,0.0454,0.0512,0.0584,0.0652,0.0708,0.0749,0.0761,0.0777,0.074,0.0707,0.053,0.0423,0.0164,-0.0028,-0.0201,-0.0239,-0.0288,-0.0297,-0.0298,-0.0199,-0.0122,-0.0178,0,0,0,0,0,0.0414,0.0448,0.0514,0.0589,0.0658,0.0702,0.0766,0.0796,0.081,0.0766,0.0742,0.0582,0.0318,0.0197,0.0028,-0.0045,-0.028,-0.0249,-0.0343,-0.0489,-0.0488,-0.0399,0,0,0,0,0,0,0.0405,0.0461,0.0502,0.0569,0.0623,0.0699,0.0748,0.0769,0.0746,0.0738,0.0599,0.0545,0.0283,0.0413,0.0024,-0.0028,-0.0109,-0.037,-0.0373,-0.049,-0.0488,-0.0487,-0.0396,0,0,0,0,0]}]]